EB2EMZ-14 Weather Reports


time (UTC)temp
C
wind
direction
speed
KPH
gust
KPH
rain 1hr
cm
rain 24hr
cm
rain mn
cm
humidity
%
barometer
mb
20260508024512 5 22 0.0 0.0 0.00 0.00 0.00 88 1009.7
20260508024014 5 22 0.0 0.0 0.00 0.00 0.00 88 1009.6
20260508023513 5 22 0.0 0.0 0.00 0.00 0.00 88 1009.8
20260508023012 5 22 0.0 0.0 0.00 0.00 0.00 88 1009.7
20260508022512 5 22 0.0 0.0 0.00 0.00 0.00 88 1009.7
20260508022013 5 22 0.0 0.0 0.00 0.00 0.00 88 1009.7
20260508021512 5 22 0.0 0.0 0.00 0.00 0.00 88 1009.8
20260508021013 5 22 0.0 0.0 0.00 0.00 0.00 88 1009.8
20260508020514 5 22 0.0 0.0 0.00 0.00 0.00 88 1009.8
20260508020013 5 22 0.0 0.0 0.00 0.00 0.00 88 1009.7
20260508015513 5 0 0.0 0.0 0.00 0.00 0.00 88 1009.7
20260508015013 5 0 0.0 0.0 0.00 0.00 0.00 88 1009.7
20260508014512 5 0 0.0 0.0 0.00 0.00 0.00 88 1009.7
20260508014012 5 0 0.0 0.0 0.00 0.00 0.00 87 1009.6
20260508013513 5 0 0.0 0.0 0.00 0.00 0.00 87 1009.8
20260508013013 5 0 0.0 0.0 0.00 0.00 0.00 87 1009.7
20260508012512 5 0 0.0 0.0 0.00 0.00 0.00 87 1009.7
20260508012013 5 0 0.0 0.0 0.00 0.00 0.00 87 1009.7
20260508011513 5 0 0.0 0.0 0.00 0.00 0.00 87 1009.8
20260508011012 5 0 0.0 0.0 0.00 0.00 0.00 87 1009.7
20260508010513 5 0 0.0 0.0 0.00 0.00 0.00 86 1009.8
20260508010012 5 0 0.0 0.0 0.00 0.00 0.00 86 1009.8
20260508005512 5 0 0.0 0.0 0.00 0.00 0.00 86 1009.9
20260508005013 5 0 0.0 0.0 0.00 0.00 0.00 86 1009.9
20260508004512 5 0 0.0 0.0 0.00 0.00 0.00 86 1009.8
20260508004013 5 0 0.0 0.0 0.00 0.00 0.00 86 1010.1
20260508003514 6 0 0.0 0.0 0.00 0.00 0.00 86 1010.0
20260508003013 6 0 0.0 0.0 0.00 0.00 0.00 86 1010.2
20260508002513 6 0 0.0 0.0 0.00 0.00 0.00 86 1010.1
20260508002013 6 0 0.0 0.0 0.00 0.00 0.00 86 1010.1
20260508001513 6 0 0.0 0.0 0.00 0.00 0.00 86 1010.1
20260508001012 6 0 0.0 0.0 0.00 0.00 0.00 86 1010.2
20260508000513 6 0 0.0 0.0 0.00 0.00 0.00 86 1010.2
20260508000012 6 0 0.0 0.0 0.00 0.00 0.00 85 1010.1
20260507235512 6 0 0.0 0.0 0.00 0.00 0.00 85 1010.1
20260507235012 6 0 0.0 0.0 0.00 0.00 0.00 85 1010.2
20260507234512 6 0 0.0 1.6 0.00 0.00 0.00 85 1010.3
20260507234013 6 0 0.0 1.6 0.00 0.00 0.00 85 1010.2
20260507233513 6 0 0.0 0.0 0.00 0.00 0.00 85 1010.2
20260507233013 6 0 0.0 1.6 0.00 0.00 0.00 85 1010.1
20260507232512 6 0 0.0 0.0 0.00 0.00 0.00 85 1010.2
20260507232012 7 0 0.0 0.0 0.00 0.00 0.00 85 1010.2
20260507231512 7 0 0.0 0.0 0.00 0.00 0.00 85 1010.1
20260507231013 7 0 0.0 0.0 0.00 0.00 0.00 85 1010.3
20260507230513 7 0 0.0 0.0 0.00 0.00 0.00 85 1010.1
20260507230013 7 45 0.0 0.0 0.00 0.00 0.00 84 1010.2
20260507225513 7 45 0.0 0.0 0.00 0.00 0.00 84 1010.3
20260507225013 7 45 0.0 0.0 0.00 0.00 0.00 84 1010.4
20260507224512 7 45 0.0 0.0 0.00 0.00 0.00 84 1010.4
20260507224012 7 45 0.0 0.0 0.00 0.00 0.00 84 1010.3
20260507223513 7 45 0.0 0.0 0.00 0.00 0.00 83 1010.4
20260507223012 7 45 0.0 0.0 0.00 0.00 0.00 83 1010.2
20260507222513 7 0 0.0 0.0 0.00 0.00 0.00 83 1010.4
20260507222013 7 0 0.0 0.0 0.00 0.00 0.00 82 1010.2
20260507221512 7 135 0.0 0.0 0.00 0.00 0.00 82 1010.4
20260507221012 7 135 0.0 0.0 0.00 0.00 0.00 82 1010.4
20260507220513 7 135 0.0 0.0 0.00 0.00 0.00 81 1010.3
20260507220012 7 135 0.0 0.0 0.00 0.00 0.00 81 1010.4
20260507215513 7 135 0.0 0.0 0.00 0.00 0.00 80 1010.3
20260507215014 7 135 0.0 0.0 0.00 0.00 0.00 80 1010.5
20260507214512 8 135 0.0 0.0 0.00 0.00 0.00 80 1010.4
20260507214013 8 135 0.0 0.0 0.00 0.00 0.00 80 1010.3
20260507213512 8 135 0.0 0.0 0.00 0.00 0.00 79 1010.3
20260507213013 8 135 0.0 0.0 0.00 0.00 0.00 79 1010.2
20260507212514 8 135 0.0 0.0 0.00 0.00 0.00 79 1010.2
20260507212013 8 135 0.0 0.0 0.00 0.00 0.00 79 1010.2
20260507211513 8 135 0.0 0.0 0.00 0.00 0.00 78 1010.1
20260507211012 8 135 0.0 0.0 0.00 0.00 0.00 78 1010.1
20260507210512 8 158 0.0 0.0 0.00 0.00 0.00 77 1009.9
20260507210012 9 158 0.0 0.0 0.00 0.00 0.00 77 1010.0
20260507205512 9 202 0.0 0.0 0.00 0.00 0.00 77 1009.9
20260507205014 9 202 0.0 0.0 0.00 0.00 0.00 76 1009.8
20260507204512 9 202 0.0 0.0 0.00 0.00 0.00 76 1010.0
20260507204013 9 202 0.0 0.0 0.00 0.00 0.00 75 1009.8
20260507203513 10 202 0.0 0.0 0.00 0.00 0.00 74 1009.7
20260507203012 10 202 0.0 0.0 0.00 0.00 0.00 74 1009.8
20260507202512 10 202 0.0 0.0 0.00 0.00 0.00 73 1009.8
20260507202013 10 202 0.0 0.0 0.00 0.00 0.00 73 1009.7
20260507201512 10 202 0.0 0.0 0.00 0.00 0.00 72 1009.7
20260507201012 11 202 0.0 0.0 0.00 0.00 0.00 71 1009.5
20260507200513 11 202 0.0 0.0 0.00 0.00 0.00 70 1009.4
20260507200013 11 202 0.0 0.0 0.00 0.00 0.00 69 1009.5
20260507195513 11 202 0.0 0.0 0.00 0.00 0.00 68 1009.5
20260507195012 12 202 0.0 0.0 0.00 0.00 0.00 67 1009.2
20260507194513 12 202 0.0 0.0 0.00 0.00 0.00 66 1009.3
20260507194015 12 202 0.0 0.0 0.00 0.00 0.00 65 1009.2
20260507193512 13 202 0.0 0.0 0.00 0.00 0.00 65 1009.2
20260507193013 13 202 0.0 0.0 0.00 0.00 0.00 64 1009.1
20260507192513 13 202 0.0 0.0 0.00 0.00 0.00 63 1009.1
20260507192012 13 202 0.0 0.0 0.00 0.00 0.00 63 1009.0
20260507191512 14 202 0.0 0.0 0.00 0.00 0.00 62 1009.0
20260507191012 14 202 0.0 0.0 0.00 0.00 0.00 62 1009.0
20260507190513 14 202 0.0 0.0 0.00 0.00 0.00 61 1008.9
20260507190013 15 202 0.0 0.0 0.00 0.00 0.00 60 1009.1
20260507185512 15 202 0.0 0.0 0.00 0.00 0.00 60 1009.0
20260507185015 15 202 0.0 0.0 0.00 0.00 0.00 59 1009.1
20260507184512 15 202 0.0 0.0 0.00 0.00 0.00 59 1009.0
20260507184012 15 202 0.0 0.0 0.00 0.00 0.00 58 1009.0
20260507183512 15 202 0.0 0.0 0.00 0.00 0.00 58 1009.0
20260507183012 16 202 0.0 0.0 0.00 0.00 0.00 57 1008.8
20260507182512 16 202 0.0 3.2 0.00 0.00 0.00 57 1008.7
20260507182012 16 248 0.0 1.6 0.00 0.00 0.00 57 1008.7
20260507181512 16 248 0.0 0.0 0.00 0.00 0.00 56 1008.7
20260507181012 16 248 0.0 0.0 0.00 0.00 0.00 56 1008.7
20260507180512 16 248 0.0 0.0 0.00 0.00 0.00 55 1009.0
20260507180012 17 292 0.0 0.0 0.00 0.00 0.00 55 1009.0
20260507175513 17 292 0.0 0.0 0.00 0.00 0.00 55 1009.0
20260507175013 17 248 0.0 0.0 0.00 0.00 0.00 55 1008.9
20260507174512 17 202 0.0 0.0 0.00 0.00 0.00 54 1009.0
20260507174013 18 330 0.0 0.0 0.00 0.00 0.00 53 1008.8
20260507173512 18 253 1.6 8.0 0.00 0.00 0.00 53 1009.0
20260507173012 18 225 0.0 0.0 0.00 0.00 0.00 53 1008.8
20260507172513 18 225 0.0 0.0 0.00 0.00 0.00 53 1008.7
20260507172013 18 225 0.0 0.0 0.00 0.00 0.00 52 1008.8
20260507171513 18 225 0.0 0.0 0.00 0.00 0.00 52 1008.7
20260507171012 18 270 0.0 0.0 0.00 0.00 0.00 51 1008.8
20260507170513 18 270 0.0 0.0 0.00 0.00 0.00 50 1008.9
20260507170012 18 270 0.0 0.0 0.00 0.00 0.00 49 1008.9
20260507165512 18 334 0.0 0.0 0.00 0.00 0.00 48 1008.9
20260507165013 18 22 0.0 0.0 0.00 0.00 0.00 48 1008.8
20260507164512 19 0 0.0 0.0 0.00 0.00 0.00 47 1008.9
20260507164012 20 22 0.0 3.2 0.00 0.00 0.00 47 1008.8
20260507163512 20 53 0.0 0.0 0.00 0.00 0.00 46 1008.8
20260507163012 20 166 0.0 0.0 0.00 0.00 0.00 45 1008.8
20260507162513 20 158 0.0 0.0 0.00 0.00 0.00 46 1008.7
20260507162013 20 158 0.0 0.0 0.00 0.00 0.00 46 1008.7
20260507161512 20 158 0.0 0.0 0.00 0.00 0.00 46 1008.8
20260507161015 20 158 0.0 0.0 0.00 0.00 0.00 46 1008.8
20260507160513 20 166 0.0 3.2 0.00 0.00 0.00 46 1008.7
20260507160012 20 159 0.0 1.6 0.00 0.00 0.00 47 1008.6
20260507155512 20 256 0.0 3.2 0.00 0.00 0.00 46 1008.7
20260507155012 21 193 1.6 3.2 0.00 0.00 0.00 47 1008.7
20260507154512 21 135 0.0 3.2 0.00 0.00 0.00 47 1008.6
20260507154013 21 112 0.0 12.9 0.00 0.00 0.00 46 1008.4
20260507153513 21 102 1.6 14.5 0.00 0.00 0.00 46 1008.3
20260507153012 22 149 3.2 9.7 0.00 0.00 0.00 46 1008.3
20260507152511 22 181 4.8 11.3 0.00 0.00 0.00 46 1008.3
20260507152012 22 353 0.0 11.3 0.00 0.00 0.00 46 1008.2
20260507151512 22 197 3.2 14.5 0.00 0.00 0.00 46 1008.4
20260507151012 22 181 3.2 9.7 0.00 0.00 0.00 48 1008.4
20260507150513 22 190 4.8 9.7 0.00 0.00 0.00 48 1008.3
20260507150012 22 134 3.2 20.9 0.00 0.00 0.00 48 1008.5
20260507145513 21 145 3.2 20.9 0.00 0.00 0.00 49 1008.5
20260507145012 21 119 0.0 9.7 0.00 0.00 0.00 50 1008.6
20260507144512 21 167 4.8 11.3 0.00 0.00 0.00 49 1008.6
20260507144012 21 168 1.6 8.0 0.00 0.00 0.00 49 1008.6
20260507143512 21 204 3.2 14.5 0.00 0.00 0.00 48 1008.8
20260507143012 21 103 1.6 11.3 0.00 0.00 0.00 48 1008.8
20260507142512 22 112 4.8 11.3 0.00 0.00 0.00 48 1008.7
20260507142012 22 103 3.2 12.9 0.00 0.00 0.00 47 1008.8
20260507141511 22 107 1.6 9.7 0.00 0.00 0.00 47 1008.7
20260507141012 21 148 0.0 0.0 0.00 0.00 0.00 48 1008.7
20260507140511 21 113 1.6 3.2 0.00 0.00 0.00 49 1009.0
20260507140012 21 112 0.0 0.0 0.00 0.00 0.00 49 1009.0
20260507135512 21 183 1.6 11.3 0.00 0.00 0.00 49 1009.0
20260507135013 20 92 3.2 11.3 0.00 0.00 0.00 50 1009.2
20260507134512 20 149 3.2 11.3 0.00 0.00 0.00 50 1009.0
20260507134012 20 162 4.8 12.9 0.00 0.00 0.00 49 1009.0
20260507133512 20 89 8.0 11.3 0.00 0.00 0.00 48 1009.0
20260507133012 21 81 1.6 16.1 0.00 0.00 0.00 47 1009.1
20260507132511 21 92 3.2 16.1 0.00 0.00 0.00 48 1009.1
20260507132012 22 114 1.6 8.0 0.00 0.00 0.00 51 1009.2
20260507131512 22 136 3.2 12.9 0.00 0.00 0.00 50 1009.3
20260507131012 22 121 1.6 8.0 0.00 0.00 0.00 50 1009.4
20260507130513 22 184 1.6 11.3 0.00 0.00 0.00 50 1009.4
20260507130011 23 99 4.8 12.9 0.00 0.00 0.00 49 1009.6
20260507125511 23 116 3.2 16.1 0.00 0.00 0.00 49 1009.8
20260507125011 23 95 3.2 11.3 0.00 0.00 0.00 49 1010.0
20260507124512 23 176 3.2 9.7 0.00 0.00 0.00 50 1009.9
20260507124016 23 133 4.8 11.3 0.00 0.00 0.00 50 1009.9
20260507123512 22 160 4.8 12.9 0.00 0.00 0.00 50 1010.0
20260507123012 22 194 4.8 14.5 0.00 0.00 0.00 50 1009.9
20260507122513 22 188 4.8 12.9 0.00 0.00 0.00 51 1010.0
20260507122012 22 147 1.6 11.3 0.00 0.00 0.00 51 1009.9
20260507121512 22 199 4.8 19.3 0.00 0.00 0.00 51 1009.9
20260507121011 22 178 8.0 19.3 0.00 0.00 0.00 51 1010.0
20260507120512 22 165 4.8 20.9 0.00 0.00 0.00 49 1010.0
20260507120012 22 44 3.2 11.3 0.00 0.00 0.00 50 1010.0
20260507115512 22 84 1.6 11.3 0.00 0.00 0.00 52 1010.1
20260507115012 21 132 3.2 11.3 0.00 0.00 0.00 53 1010.0
20260507114512 21 224 1.6 4.8 0.00 0.00 0.00 53 1010.2
20260507114012 21 179 1.6 3.2 0.00 0.00 0.00 52 1010.2
20260507113512 21 136 3.2 11.3 0.00 0.00 0.00 53 1010.2
20260507113011 21 172 1.6 8.0 0.00 0.00 0.00 54 1010.3
20260507112512 21 133 4.8 11.3 0.00 0.00 0.00 53 1010.2
20260507112012 20 135 0.0 11.3 0.00 0.00 0.00 54 1010.2
20260507111512 20 208 0.0 11.3 0.00 0.00 0.00 54 1010.1
20260507111012 20 78 3.2 11.3 0.00 0.00 0.00 53 1010.2
20260507110511 20 76 3.2 9.7 0.00 0.00 0.00 53 1010.2
20260507110011 20 197 4.8 9.7 0.00 0.00 0.00 55 1010.1
20260507105511 19 182 0.0 8.0 0.00 0.00 0.00 56 1010.0
20260507105012 19 90 0.0 9.7 0.00 0.00 0.00 56 1010.2
20260507104514 18 136 3.2 9.7 0.00 0.00 0.00 56 1010.3
20260507104014 18 102 0.0 12.9 0.00 0.00 0.00 56 1010.3
20260507103512 18 95 1.6 8.0 0.00 0.00 0.00 56 1010.2
20260507103012 17 100 1.6 8.0 0.00 0.00 0.00 55 1010.3
20260507102512 17 85 1.6 9.7 0.00 0.00 0.00 55 1010.4
20260507102012 17 67 1.6 4.8 0.00 0.00 0.00 56 1010.5
20260507101512 17 49 1.6 11.3 0.00 0.00 0.00 55 1010.5
20260507101012 17 91 1.6 14.5 0.00 0.00 0.00 55 1010.6
20260507100511 17 112 1.6 9.7 0.00 0.00 0.00 55 1010.5
20260507100011 17 94 1.6 8.0 0.00 0.00 0.00 55 1010.5
20260507095512 17 51 1.6 11.3 0.00 0.00 0.00 55 1010.7
20260507095011 17 153 1.6 9.7 0.00 0.00 0.00 53 1010.7
20260507094511 17 83 4.8 14.5 0.00 0.00 0.00 53 1010.7
20260507094012 17 63 3.2 11.3 0.00 0.00 0.00 53 1010.8
20260507093511 17 110 0.0 8.0 0.00 0.00 0.00 52 1010.9
20260507093012 17 106 6.4 9.7 0.00 0.00 0.00 51 1010.7
20260507092511 17 89 1.6 9.7 0.00 0.00 0.00 50 1010.7
20260507092013 18 122 1.6 11.3 0.00 0.00 0.00 48 1010.8
20260507091511 18 84 4.8 11.3 0.00 0.00 0.00 47 1010.9
20260507091012 20 68 3.2 11.3 0.00 0.00 0.00 45 1010.8
20260507090511 21 93 1.6 11.3 0.00 0.00 0.00 45 1010.8
20260507090011 21 106 1.6 11.3 0.00 0.00 0.00 42 1010.8
20260507085511 22 124 1.6 9.7 0.00 0.00 0.00 42 1010.8
20260507085011 23 89 0.0 3.2 0.00 0.00 0.00 43 1010.9
20260507084511 23 142 3.2 8.0 0.00 0.00 0.00 42 1010.8
20260507084011 25 80 3.2 9.7 0.00 0.00 0.00 41 1010.9
20260507083511 25 117 1.6 11.3 0.00 0.00 0.00 40 1010.7
20260507083011 26 104 1.6 9.7 0.00 0.00 0.00 41 1010.7
20260507082511 26 178 3.2 9.7 0.00 0.00 0.00 41 1010.8
20260507082012 26 122 0.0 8.0 0.00 0.00 0.00 42 1010.8
20260507081511 26 144 1.6 4.8 0.00 0.00 0.00 43 1010.8
20260507081011 26 135 0.0 4.8 0.00 0.00 0.00 44 1010.8
20260507080512 25 133 0.0 0.0 0.00 0.00 0.00 47 1010.8
20260507080011 25 133 0.0 0.0 0.00 0.00 0.00 47 1011.0
20260507075512 24 112 0.0 0.0 0.00 0.00 0.00 48 1010.9
20260507075011 23 135 0.0 0.0 0.00 0.00 0.00 50 1011.0
20260507074512 23 202 0.0 0.0 0.00 0.00 0.00 51 1010.9
20260507074011 22 202 0.0 0.0 0.00 0.00 0.00 54 1011.0
20260507073511 21 202 0.0 0.0 0.00 0.00 0.00 55 1010.9
20260507073012 21 202 0.0 0.0 0.00 0.00 0.00 57 1011.0
20260507072511 20 202 0.0 0.0 0.00 0.00 0.00 59 1010.9
20260507072012 19 202 0.0 0.0 0.00 0.00 0.00 65 1011.0
20260507071513 17 202 0.0 0.0 0.00 0.00 0.00 73 1011.2
20260507071013 15 202 0.0 0.0 0.00 0.00 0.00 80 1011.2
20260507070512 13 202 0.0 0.0 0.00 0.00 0.00 90 1011.1
20260507070013 11 202 0.0 0.0 0.00 0.00 0.00 94 1011.2
20260507065512 9 202 0.0 0.0 0.00 0.00 0.00 94 1011.2
20260507065012 7 202 0.0 0.0 0.00 0.00 0.00 93 1011.1
20260507064512 7 202 0.0 0.0 0.00 0.00 0.00 92 1011.3
20260507064011 6 202 0.0 0.0 0.00 0.00 0.00 92 1011.2
20260507063512 6 202 0.0 0.0 0.00 0.00 0.00 92 1011.3
20260507063012 6 202 0.0 0.0 0.00 0.00 0.00 92 1011.2
20260507062512 6 112 0.0 0.0 0.00 0.00 0.00 92 1011.1
20260507062012 6 112 0.0 0.0 0.00 0.00 0.00 92 1011.1
20260507061511 6 112 0.0 0.0 0.00 0.00 0.00 92 1011.1
20260507061011 5 112 0.0 0.0 0.00 0.00 0.00 92 1011.0
20260507060511 5 112 0.0 0.0 0.00 0.00 0.00 92 1011.0
20260507060010 5 112 0.0 0.0 0.00 0.00 0.00 92 1011.1
20260507055511 3 112 0.0 0.0 0.00 0.00 0.00 92 1011.2
20260507055011 3 112 0.0 0.0 0.00 0.00 0.00 92 1011.1
20260507054511 3 112 0.0 0.0 0.00 0.00 0.00 92 1011.1
20260507054011 2 112 0.0 0.0 0.00 0.00 0.00 92 1011.1
20260507053511 2 112 0.0 0.0 0.00 0.00 0.00 91 1011.2
20260507053011 2 112 0.0 0.0 0.00 0.00 0.00 91 1011.1
20260507052512 2 112 0.0 0.0 0.00 0.00 0.00 91 1011.1
20260507052012 1 112 0.0 0.0 0.00 0.00 0.00 91 1011.1
20260507051511 1 112 0.0 1.6 0.00 0.00 0.00 91 1011.2
20260507051012 1 112 0.0 0.0 0.00 0.00 0.00 91 1011.2
20260507050512 1 112 0.0 0.0 0.00 0.00 0.00 91 1011.1
20260507050012 1 112 0.0 0.0 0.00 0.00 0.00 91 1011.2
20260507045511 1 112 0.0 0.0 0.00 0.00 0.00 91 1011.3
20260507045011 0 112 0.0 0.0 0.00 0.00 0.00 90 1011.4
20260507044511 0 112 0.0 0.0 0.00 0.00 0.00 90 1011.2
20260507044011 0 112 0.0 0.0 0.00 0.00 0.00 90 1011.5
20260507043511 0 112 0.0 0.0 0.00 0.00 0.00 90 1011.4
20260507043011 0 112 0.0 0.0 0.00 0.00 0.00 90 1011.1
20260507042511 0 112 0.0 0.0 0.00 0.00 0.00 90 1011.3
20260507042012 0 112 0.0 0.0 0.00 0.00 0.00 90 1011.4
20260507041512 0 112 0.0 0.0 0.00 0.00 0.00 90 1011.4
20260507041011 0 112 0.0 0.0 0.00 0.00 0.00 90 1011.5
20260507040514 0 112 0.0 0.0 0.00 0.00 0.00 90 1011.5
20260507040011 0 112 0.0 0.0 0.00 0.00 0.00 90 1011.5
20260507035512 0 112 0.0 0.0 0.00 0.00 0.00 90 1011.5
20260507035011 0 112 0.0 0.0 0.00 0.00 0.00 90 1011.5
20260507034511 0 112 0.0 0.0 0.00 0.00 0.00 90 1011.7
20260507034012 0 112 0.0 0.0 0.00 0.00 0.00 90 1011.6
20260507033511 0 112 0.0 0.0 0.00 0.00 0.00 90 1011.6
20260507033011 0 112 0.0 0.0 0.00 0.00 0.00 90 1011.6
20260507032510 1 112 0.0 0.0 0.00 0.00 0.00 89 1011.6
20260507032011 1 112 0.0 0.0 0.00 0.00 0.00 89 1011.6
20260507031511 1 112 0.0 0.0 0.00 0.00 0.00 89 1011.8
20260507031011 1 112 0.0 0.0 0.00 0.00 0.00 89 1011.7
20260507030511 1 112 0.0 0.0 0.00 0.00 0.00 89 1011.7
20260507030011 1 112 0.0 0.0 0.00 0.00 0.00 89 1011.6
20260507025511 1 112 0.0 0.0 0.00 0.00 0.00 89 1011.7
20260507025011 1 112 0.0 0.0 0.00 0.00 0.00 89 1011.6